When you browse on this site, cookies collect data to enhance your experience and personalize the content and advertising you see.
Visit our Privacy Policy to learn more. By continuing to use the site, you agree to this use of cookies and data.
  • In Romania
  • List of Countries
  • For 7 days
  • Water Temperature
  • Satellite Maps
  • Weather Map
  • Weather Widgets
  • user-avatar
    Login

    Hourly Weather Pravokumskiy

    Today, 21 November, Wednesday

    Time Temperature Precipitation Wind Pressure Humidity
    00:00 +5°C° 1 mm 2 mps 756 mmHg 95%
    01:00 +5°C° 0.1 mm 2 mps 756 mmHg 94%
    02:00 +4°C° 0.1 mm 3 mps 756 mmHg 94%
    03:00 +4°C° 0 mm 3 mps 756 mmHg 92%
    04:00 +4°C° 0 mm 3 mps 757 mmHg 91%
    05:00 +3°C° 0 mm 3 mps 757 mmHg 90%
    06:00 +3°C° 0 mm 4 mps 757 mmHg 89%
    07:00 +3°C° 0 mm 3 mps 757 mmHg 86%
    08:00 +3°C° 0 mm 3 mps 758 mmHg 83%
    09:00 +3°C° 0 mm 3 mps 758 mmHg 79%
    10:00 +4°C° 0 mm 2 mps 758 mmHg 74%
    11:00 +4°C° 0 mm 2 mps 758 mmHg 69%
    12:00 +5°C° 0 mm 2 mps 758 mmHg 64%
    13:00 +5°C° 0 mm 2 mps 757 mmHg 63%
    14:00 +6°C° 0 mm 1 mps 757 mmHg 61%
    15:00 +7°C° 0 mm 1 mps 757 mmHg 59%
    16:00 +6°C° 0 mm 1 mps 757 mmHg 61%
    17:00 +6°C° 0 mm 1 mps 757 mmHg 63%
    18:00 +5°C° 0 mm 1 mps 757 mmHg 64%
    19:00 +5°C° 0 mm 1 mps 757 mmHg 64%
    20:00 +4°C° 0 mm 1 mps 757 mmHg 64%
    21:00 +4°C° 0 mm 1 mps 756 mmHg 64%
    22:00 +4°C° 0 mm 1 mps 756 mmHg 64%
    23:00 +3°C° 0 mm 2 mps 756 mmHg 64%

    Tomorrow, 22 November, Thursday

    Time Temperature Precipitation Wind Pressure Humidity
    00:00 +2°C° 0 mm 2 mps 756 mmHg 63%
    01:00 +2°C° 0 mm 2 mps 756 mmHg 64%
    02:00 +3°C° 0 mm 1 mps 756 mmHg 64%
    03:00 +3°C° 0 mm 1 mps 756 mmHg 65%
    04:00 +3°C° 0 mm 1 mps 756 mmHg 65%
    05:00 +3°C° 0 mm 1 mps 756 mmHg 66%
    06:00 +3°C° 0 mm 1 mps 756 mmHg 66%
    07:00 +3°C° 0 mm 1 mps 756 mmHg 66%
    08:00 +3°C° 0 mm 1 mps 756 mmHg 65%
    09:00 +3°C° 0 mm 1 mps 756 mmHg 64%
    10:00 +4°C° 0 mm 1 mps 756 mmHg 63%
    11:00 +5°C° 0 mm 1 mps 756 mmHg 61%
    12:00 +5°C° 0 mm 1 mps 755 mmHg 60%
    13:00 +5°C° 0 mm 2 mps 755 mmHg 60%
    14:00 +5°C° 0 mm 2 mps 755 mmHg 59%
    15:00 +5°C° 0 mm 2 mps 755 mmHg 59%
    16:00 +4°C° 0 mm 2 mps 755 mmHg 63%
    17:00 +3°C° 0 mm 2 mps 755 mmHg 67%
    18:00 +2°C° 0 mm 2 mps 756 mmHg 71%
    19:00 +2°C° 0 mm 2 mps 756 mmHg 72%
    20:00 +2°C° 0 mm 2 mps 756 mmHg 73%
    21:00 +1°C° 0 mm 2 mps 756 mmHg 73%
    22:00 +1°C° 0 mm 2 mps 756 mmHg 74%
    23:00 -1°C° 0 mm 2 mps 756 mmHg 76%

    Day after tomorrow, 23 November, Friday

    Time Temperature Precipitation Wind Pressure Humidity
    00:00 -1°C° 0 mm 2 mps 756 mmHg 77%
    01:00 -1°C° 0 mm 2 mps 756 mmHg 77%
    02:00 -2°C° 0 mm 2 mps 756 mmHg 77%
    03:00 -2°C° 0 mm 3 mps 756 mmHg 78%
    04:00 -2°C° 0 mm 3 mps 756 mmHg 77%
    05:00 -2°C° 0 mm 3 mps 756 mmHg 77%
    06:00 -2°C° 0 mm 3 mps 756 mmHg 76%
    07:00 -2°C° 0 mm 4 mps 756 mmHg 71%
    08:00 -2°C° 0 mm 5 mps 757 mmHg 67%
    09:00 -1°C° 0 mm 5 mps 757 mmHg 62%
    10:00 -1°C° 0 mm 6 mps 757 mmHg 57%
    11:00 +1°C° 0 mm 6 mps 757 mmHg 52%
    12:00 +2°C° 0 mm 7 mps 757 mmHg 47%
    13:00 +2°C° 0 mm 7 mps 758 mmHg 49%
    14:00 +2°C° 0 mm 7 mps 758 mmHg 51%
    15:00 +2°C° 0 mm 7 mps 759 mmHg 53%
    16:00 -1°C° 0 mm 6 mps 760 mmHg 60%
    17:00 -1°C° 0 mm 5 mps 761 mmHg 66%
    18:00 -2°C° 0 mm 4 mps 762 mmHg 72%
    19:00 -2°C° 0 mm 4 mps 763 mmHg 75%
    20:00 -2°C° 0 mm 3 mps 764 mmHg 78%
    21:00 -4°C° 0 mm 3 mps 765 mmHg 82%
    22:00 -3°C° 0 mm 2 mps 766 mmHg 82%
    23:00 -3°C° 0 mm 2 mps 766 mmHg 83%

    24 November, Saturday

    Time Temperature Precipitation Wind Pressure Humidity
    00:00 -1°C° 0 mm 1 mps 766 mmHg 83%
    01:00 -1°C° 0 mm 1 mps 767 mmHg 83%
    02:00 -1°C° 0 mm 1 mps 767 mmHg 83%
    03:00 -1°C° 0 mm 1 mps 767 mmHg 83%
    04:00 -1°C° 0 mm 1 mps 767 mmHg 83%
    05:00 -3°C° 0 mm 2 mps 767 mmHg 82%
    06:00 -3°C° 0 mm 2 mps 767 mmHg 82%
    07:00 -3°C° 0 mm 2 mps 767 mmHg 77%
    08:00 -2°C° 0 mm 3 mps 768 mmHg 72%
    09:00 -3°C° 0 mm 4 mps 768 mmHg 67%
    10:00 -2°C° 0 mm 4 mps 767 mmHg 62%
    11:00 0°C° 0 mm 4 mps 767 mmHg 57%
    12:00 +1°C° 0 mm 5 mps 767 mmHg 52%
    13:00 +1°C° 0 mm 5 mps 766 mmHg 51%
    14:00 +1°C° 0 mm 5 mps 766 mmHg 50%
    15:00 +1°C° 0 mm 5 mps 765 mmHg 49%
    16:00 0°C° 0 mm 4 mps 765 mmHg 52%
    17:00 -2°C° 0 mm 4 mps 765 mmHg 55%
    18:00 -2°C° 0 mm 3 mps 765 mmHg 58%
    19:00 -2°C° 0 mm 3 mps 765 mmHg 61%
    20:00 -2°C° 0 mm 3 mps 764 mmHg 64%
    21:00 -2°C° 0 mm 3 mps 764 mmHg 67%
    22:00 -2°C° 0 mm 3 mps 764 mmHg 73%
    23:00 -2°C° 0 mm 3 mps 763 mmHg 79%

    25 November, Sunday

    Time Temperature Precipitation Wind Pressure Humidity
    00:00 -2°C° 0 mm 2 mps 763 mmHg 85%
    01:00 -1°C° 0 mm 2 mps 762 mmHg 88%
    02:00 +1°C° 0 mm 2 mps 762 mmHg 90%
    03:00 +1°C° 0 mm 2 mps 761 mmHg 93%
    04:00 +2°C° 0 mm 2 mps 761 mmHg 94%
    05:00 +3°C° 0 mm 1 mps 760 mmHg 95%
    06:00 +3°C° 0 mm 1 mps 760 mmHg 96%
    07:00 +3°C° 0 mm 1 mps 760 mmHg 95%
    08:00 +4°C° 0 mm 1 mps 759 mmHg 94%
    09:00 +4°C° 0 mm 1 mps 759 mmHg 94%
    10:00 +5°C° 0 mm 1 mps 759 mmHg 90%
    11:00 +6°C° 0 mm 1 mps 758 mmHg 86%
    12:00 +7°C° 0 mm 1 mps 757 mmHg 82%
    13:00 +7°C° 0 mm 1 mps 757 mmHg 82%
    14:00 +7°C° 0 mm 1 mps 757 mmHg 82%
    15:00 +7°C° 0 mm 1 mps 756 mmHg 82%
    16:00 +6°C° 0 mm 1 mps 756 mmHg 85%
    17:00 +5°C° 0 mm 1 mps 756 mmHg 89%
    18:00 +4°C° 0 mm 1 mps 757 mmHg 92%
    19:00 +3°C° 0 mm 0 mps 756 mmHg 93%
    20:00 +3°C° 0 mm 0 mps 756 mmHg 93%
    21:00 +3°C° 0 mm 0 mps 756 mmHg 94%
    22:00 +3°C° 0 mm 1 mps 756 mmHg 94%
    23:00 +3°C° 0 mm 1 mps 755 mmHg 94%

    26 November, Monday

    Time Temperature Precipitation Wind Pressure Humidity
    00:00 +3°C° 0 mm 1 mps 755 mmHg 95%
    01:00 +3°C° 0 mm 1 mps 755 mmHg 95%
    02:00 +3°C° 0 mm 1 mps 755 mmHg 95%
    03:00 +3°C° 0 mm 1 mps 755 mmHg 95%
    04:00 +3°C° 0 mm 1 mps 755 mmHg 95%
    05:00 +4°C° 0 mm 1 mps 754 mmHg 95%
    06:00 +4°C° 0 mm 1 mps 754 mmHg 95%
    07:00 +4°C° 0 mm 1 mps 755 mmHg 94%
    08:00 +5°C° 0 mm 1 mps 755 mmHg 92%
    09:00 +6°C° 0 mm 1 mps 755 mmHg 90%
    10:00 +6°C° 0 mm 0 mps 754 mmHg 84%
    11:00 +7°C° 0 mm 0 mps 754 mmHg 78%
    12:00 +8°C° 0 mm 0 mps 754 mmHg 72%
    13:00 +8°C° 0 mm 0 mps 754 mmHg 70%
    14:00 +9°C° 0 mm 0 mps 754 mmHg 69%
    15:00 +10°C° 0 mm 1 mps 753 mmHg 67%
    16:00 +9°C° 0 mm 1 mps 754 mmHg 73%
    17:00 +8°C° 0 mm 1 mps 754 mmHg 79%
    18:00 +6°C° 0 mm 1 mps 754 mmHg 84%
    19:00 +6°C° 0 mm 1 mps 754 mmHg 85%
    20:00 +6°C° 0 mm 1 mps 754 mmHg 86%
    21:00 +5°C° 0 mm 1 mps 754 mmHg 86%
    22:00 +4°C° 0 mm 2 mps 754 mmHg 85%
    23:00 +4°C° 0 mm 2 mps 753 mmHg 85%
    Show more